StationID,Date,MaxTemp,MinTemp,Precipitation,Snowfall,SnowDepth
"USC00503304","1965-12-16",28.04,-4.00,0.00,20.00,
"USC00503304","1965-12-17",10.94,-25.06,0.00,0.00,
"USC00503304","1965-12-18",-14.98,-41.08,5.00,8.00,
"USC00503304","1965-12-19",3.02,-18.04,5.00,18.00,
"USC00503304","1965-12-20",3.02,-5.08,0.00,0.00,
"USC00503304","1965-12-21",1.94,-14.08,5.00,8.00,
"USC00503304","1965-12-22",-0.94,-11.02,0.00,0.00,
"USC00503304","1965-12-23",-0.94,-9.94,0.00,0.00,
"USC00503304","1965-12-24",-2.02,-27.04,0.00,0.00,
"USC00503304","1965-12-25",-0.04,-45.04,0.00,0.00,
"USC00503304","1965-12-26",-2.02,-31.00,0.00,0.00,
"USC00503304","1965-12-27",-0.94,-29.02,0.00,0.00,
"USC00503304","1965-12-28",-2.02,-27.94,0.00,8.00,
"USC00503304","1965-12-29",3.02,-27.04,0.00,0.00,
"USC00503304","1965-12-30",1.94,-36.04,0.00,0.00,
"USC00503304","1965-12-31",1.94,-38.02,0.00,25.00,
"USC00503304","1966-01-01",1.94,-50.98,0.00,0.00,432.00
"USC00503304","1966-01-02",-7.06,-38.92,0.00,0.00,432.00
"USC00503304","1966-01-03",-22.00,-41.98,0.00,0.00,432.00
"USC00503304","1966-01-04",-29.02,-52.06,0.00,0.00,432.00
"USC00503304","1966-01-05",-29.92,-50.08,0.00,0.00,432.00
"USC00503304","1966-01-06",-31.00,-54.04,0.00,0.00,432.00
"USC00503304","1966-01-07",-22.00,-40.00,0.00,0.00,432.00
"USC00503304","1966-01-08",-9.94,-38.02,0.00,0.00,432.00
"USC00503304","1966-01-09",-13.00,-38.92,0.00,13.00,432.00
"USC00503304","1966-01-10",-7.06,-25.06,0.00,8.00,457.00
"USC00503304","1966-01-11",-2.92,-18.94,0.00,0.00,457.00
"USC00503304","1966-01-12",-14.98,-27.04,0.00,0.00,457.00
"USC00503304","1966-01-13",-2.02,-49.00,0.00,0.00,457.00
"USC00503304","1966-01-14",-14.98,-45.04,0.00,0.00,457.00
"USC00503304","1966-01-15",-16.06,-34.96,0.00,0.00,457.00
"USC00503304","1966-01-16",-2.92,-36.94,10.00,25.00,483.00
"USC00503304","1966-01-17",3.92,-18.94,0.00,0.00,483.00
"USC00503304","1966-01-18",5.00,-22.00,0.00,0.00,483.00
"USC00503304","1966-01-19",3.02,-9.94,56.00,94.00,559.00
"USC00503304","1966-01-20",5.00,-9.04,0.00,0.00,559.00
"USC00503304","1966-01-21",3.92,-2.02,0.00,0.00,559.00
"USC00503304","1966-01-22",3.92,-14.98,0.00,0.00,559.00
"USC00503304","1966-01-23",-0.04,-20.02,0.00,0.00,559.00
"USC00503304","1966-01-24",1.94,-20.02,0.00,0.00,559.00
"USC00503304","1966-01-25",5.00,-31.00,0.00,0.00,559.00
"USC00503304","1966-01-26",-5.08,-29.92,0.00,0.00,559.00
"USC00503304","1966-01-27",-5.08,-32.98,0.00,0.00,559.00
"USC00503304","1966-01-28",-7.06,-27.94,0.00,0.00,559.00
"USC00503304","1966-01-29",-7.96,-40.00,0.00,0.00,559.00
"USC00503304","1966-01-30",6.98,-29.92,0.00,0.00,559.00
"USC00503304","1966-01-31",12.02,-25.06,0.00,0.00,559.00
"USC00503304","1966-02-01",15.08,-2.92,0.00,0.00,559.00
"USC00503304","1966-02-02",33.08,1.04,0.00,0.00,559.00
"USC00503304","1966-02-03",10.04,-9.94,0.00,0.00,559.00
"USC00503304","1966-02-04",10.04,-11.02,8.00,25.00,584.00
"USC00503304","1966-02-05",10.04,-11.02,0.00,0.00,584.00
"USC00503304","1966-02-06",10.94,-9.94,0.00,0.00,584.00
"USC00503304","1966-02-07",10.94,-9.94,0.00,13.00,584.00
"USC00503304","1966-02-08",8.06,-11.92,0.00,0.00,584.00
"USC00503304","1966-02-09",5.00,-9.94,0.00,0.00,584.00
"USC00503304","1966-02-10",17.06,-2.02,0.00,0.00,584.00
"USC00503304","1966-02-11",28.04,-11.92,0.00,0.00,584.00
"USC00503304","1966-02-12",30.92,3.02,0.00,0.00,584.00
"USC00503304","1966-02-13",30.02,3.02,0.00,0.00,584.00
"USC00503304","1966-02-14",24.08,-16.06,0.00,0.00,584.00
"USC00503304","1966-02-15",21.02,5.00,41.00,51.00,635.00
"USC00503304","1966-02-16",26.06,-5.98,15.00,25.00,635.00
"USC00503304","1966-02-17",28.04,-11.92,0.00,8.00,635.00
"USC00503304","1966-02-18",15.08,-7.96,0.00,0.00,635.00
"USC00503304","1966-02-19",10.04,-32.98,0.00,0.00,635.00
"USC00503304","1966-02-20",3.02,-32.08,0.00,0.00,635.00
"USC00503304","1966-02-21",10.94,-9.94,3.00,5.00,635.00
"USC00503304","1966-02-22",8.96,-27.94,5.00,8.00,635.00
"USC00503304","1966-02-23",15.08,-32.98,0.00,0.00,635.00
"USC00503304","1966-02-24",12.02,-13.00,0.00,0.00,635.00
"USC00503304","1966-02-25",30.92,-5.98,0.00,0.00,635.00
"USC00503304","1966-02-26",30.02,-2.02,0.00,0.00,635.00
"USC00503304","1966-02-27",32.00,-11.92,0.00,0.00,635.00
"USC00503304","1966-02-28",24.08,-18.04,0.00,0.00,635.00
"USC00503304","1966-03-01",30.02,-29.92,0.00,0.00,635.00
"USC00503304","1966-03-02",8.06,-23.08,0.00,0.00,635.00
"USC00503304","1966-03-03",15.08,-11.92,0.00,0.00,635.00
"USC00503304","1966-03-04",15.08,-11.02,0.00,0.00,635.00
"USC00503304","1966-03-05",24.08,-11.92,0.00,0.00,635.00
"USC00503304","1966-03-06",26.96,-14.98,0.00,0.00,635.00
"USC00503304","1966-03-07",15.08,-25.96,0.00,0.00,635.00
"USC00503304","1966-03-08",17.96,-14.98,0.00,0.00,635.00
"USC00503304","1966-03-09",,,0.00,0.00,
"USC00503304","1966-03-10",,,0.00,0.00,
"USC00503304","1966-03-11",,,0.00,0.00,
"USC00503304","1966-03-12",,,0.00,0.00,
"USC00503304","1966-03-13",,-9.94,13.00,13.00,660.00
"USC00503304","1966-03-14",,-2.02,0.00,0.00,660.00
"USC00503304","1966-03-15",,-14.98,8.00,25.00,
"USC00503304","1966-03-16",,-34.06,0.00,0.00,
"USC00503304","1966-03-17",,-32.98,0.00,0.00,
"USC00503304","1966-03-18",,-27.94,8.00,23.00,
"USC00503304","1966-03-19",,-14.98,0.00,0.00,
"USC00503304","1966-03-20",,-14.08,0.00,0.00,
"USC00503304","1966-03-21",,-22.00,0.00,0.00,
"USC00503304","1966-03-22",,8.06,0.00,0.00,
"USC00503304","1966-03-23",,3.02,0.00,0.00,
"USC00503304","1966-03-24",,-0.94,0.00,0.00,
"USC00503304","1966-03-25",,8.06,0.00,0.00,
"USC00503304","1966-03-26",,21.02,0.00,0.00,
"USC00503304","1966-03-27",,15.98,0.00,0.00,
"USC00503304","1966-03-28",,12.92,0.00,0.00,
"USC00503304","1966-03-29",,24.98,0.00,0.00,
"USC00503304","1966-03-30",,28.04,0.00,0.00,
"USC00503304","1966-03-31",,21.92,0.00,0.00,
"USC00503304","1966-04-01",,5.00,0.00,0.00,
"USC00503304","1966-04-02",,,0.00,0.00,
"USC00503304","1966-04-03",,12.02,0.00,0.00,
"USC00503304","1966-04-04",,10.04,0.00,0.00,
"USC00503304","1966-04-05",,15.08,0.00,0.00,
"USC00503304","1966-04-06",44.06,10.94,0.00,0.00,
"USC00503304","1966-04-07",46.94,15.08,0.00,0.00,
"USC00503304","1966-04-08",48.02,15.98,0.00,0.00,
"USC00503304","1966-04-09",48.02,26.06,0.00,0.00,
"USC00503304","1966-04-10",39.92,17.96,0.00,0.00,
"USC00503304","1966-04-11",41.00,12.92,0.00,0.00,
"USC00503304","1966-04-12",39.92,8.96,0.00,0.00,
"USC00503304","1966-04-13",39.02,5.00,0.00,0.00,
"USC00503304","1966-04-14",42.98,3.02,0.00,0.00,
"USC00503304","1966-04-15",42.08,21.92,0.00,0.00,
"USC00503304","1966-04-16",42.08,24.98,0.00,0.00,
"USC00503304","1966-04-17",44.06,28.04,0.00,0.00,
"USC00503304","1966-04-18",44.96,32.00,0.00,0.00,
"USC00503304","1966-04-19",46.94,30.02,15.00,0.00,
"USC00503304","1966-04-20",46.94,24.08,0.00,0.00,
"USC00503304","1966-04-21",44.96,21.92,0.00,0.00,
"USC00503304","1966-04-22",30.02,15.98,0.00,0.00,
"USC00503304","1966-04-23",37.94,1.94,0.00,0.00,
"USC00503304","1966-04-24",37.94,10.04,0.00,0.00,
"USC00503304","1966-04-25",42.08,17.06,0.00,0.00,
"USC00503304","1966-04-26",46.94,17.06,0.00,0.00,
"USC00503304","1966-04-27",48.92,30.02,0.00,0.00,
"USC00503304","1966-04-28",50.00,19.04,0.00,0.00,
"USC00503304","1966-04-29",48.92,28.94,0.00,0.00,
"USC00503304","1966-04-30",53.06,24.08,0.00,0.00,
"USC00503304","1966-05-01",53.96,21.02,0.00,0.00,0.00
"USC00503304","1966-05-02",53.06,24.98,0.00,0.00,0.00
"USC00503304","1966-05-03",53.96,21.02,0.00,0.00,0.00
"USC00503304","1966-05-04",48.02,26.96,0.00,0.00,0.00
"USC00503304","1966-05-05",50.00,23.00,0.00,0.00,0.00
"USC00503304","1966-05-06",55.04,28.04,20.00,0.00,0.00
"USC00503304","1966-05-07",55.94,35.96,15.00,0.00,0.00
"USC00503304","1966-05-08",48.02,26.96,5.00,0.00,0.00
"USC00503304","1966-05-09",51.08,21.02,0.00,0.00,0.00
"USC00503304","1966-05-10",53.06,28.04,0.00,0.00,0.00
"USC00503304","1966-05-11",51.98,37.04,0.00,0.00,0.00
"USC00503304","1966-05-12",53.96,32.00,0.00,0.00,0.00
"USC00503304","1966-05-13",51.98,35.96,0.00,0.00,0.00
"USC00503304","1966-05-14",48.02,32.00,0.00,0.00,0.00
"USC00503304","1966-05-15",51.98,35.96,0.00,0.00,0.00
"USC00503304","1966-05-16",51.08,33.08,20.00,0.00,0.00
"USC00503304","1966-05-17",55.04,24.98,0.00,0.00,0.00
"USC00503304","1966-05-18",51.08,19.94,0.00,0.00,0.00
"USC00503304","1966-05-19",51.08,19.04,0.00,0.00,0.00
"USC00503304","1966-05-20",55.94,19.94,0.00,0.00,0.00
"USC00503304","1966-05-21",55.04,21.02,0.00,0.00,0.00
"USC00503304","1966-05-22",51.98,12.02,0.00,0.00,0.00
"USC00503304","1966-05-23",48.92,32.00,64.00,0.00,0.00
"USC00503304","1966-05-24",51.98,28.94,3.00,0.00,0.00
"USC00503304","1966-05-25",53.96,26.96,10.00,0.00,0.00
"USC00503304","1966-05-26",51.98,30.02,3.00,0.00,0.00
"USC00503304","1966-05-27",53.96,33.08,0.00,0.00,0.00
"USC00503304","1966-05-28",57.02,28.04,5.00,0.00,0.00
"USC00503304","1966-05-29",57.02,26.06,28.00,0.00,0.00
"USC00503304","1966-05-30",53.06,32.00,0.00,0.00,0.00
"USC00503304","1966-05-31",53.96,37.04,0.00,0.00,0.00
"USC00503304","1966-06-01",48.92,41.00,28.00,0.00,0.00
"USC00503304","1966-06-02",57.92,42.08,0.00,0.00,0.00
"USC00503304","1966-06-03",71.06,44.96,0.00,0.00,0.00
"USC00503304","1966-06-04",69.08,46.04,41.00,0.00,0.00
"USC00503304","1966-06-05",68.00,48.92,18.00,0.00,0.00
"USC00503304","1966-06-06",69.08,48.92,0.00,0.00,0.00
"USC00503304","1966-06-07",75.92,33.98,30.00,0.00,0.00
"USC00503304","1966-06-08",75.92,39.92,0.00,0.00,0.00
"USC00503304","1966-06-09",73.94,44.06,0.00,0.00,0.00
"USC00503304","1966-06-10",75.02,41.00,0.00,0.00,0.00
"USC00503304","1966-06-11",75.02,44.96,71.00,0.00,0.00
"USC00503304","1966-06-12",64.04,46.04,3.00,0.00,0.00
"USC00503304","1966-06-13",62.06,44.06,3.00,0.00,0.00
"USC00503304","1966-06-14",64.94,35.96,0.00,0.00,0.00
"USC00503304","1966-06-15",60.08,28.04,0.00,0.00,0.00
"USC00503304","1966-06-16",69.08,33.08,0.00,0.00,0.00
"USC00503304","1966-06-17",68.00,46.94,36.00,0.00,0.00
"USC00503304","1966-06-18",64.04,44.06,10.00,0.00,0.00
"USC00503304","1966-06-19",55.94,44.06,89.00,0.00,0.00
"USC00503304","1966-06-20",64.04,46.94,3.00,0.00,0.00
"USC00503304","1966-06-21",69.98,44.06,13.00,0.00,0.00
"USC00503304","1966-06-22",66.92,42.98,112.00,0.00,0.00
"USC00503304","1966-06-23",69.08,46.94,0.00,0.00,0.00
"USC00503304","1966-06-24",64.04,33.08,3.00,0.00,0.00
"USC00503304","1966-06-25",69.98,41.00,0.00,0.00,0.00
"USC00503304","1966-06-26",71.96,42.08,0.00,0.00,0.00
"USC00503304","1966-06-27",64.94,42.98,71.00,0.00,0.00
"USC00503304","1966-06-28",64.94,35.06,8.00,0.00,0.00
"USC00503304","1966-06-29",73.04,46.04,18.00,0.00,0.00
"USC00503304","1966-06-30",69.98,35.96,0.00,0.00,0.00
"USC00503304","1966-07-01",75.02,37.04,0.00,0.00,0.00
"USC00503304","1966-07-02",69.98,48.92,0.00,0.00,0.00
"USC00503304","1966-07-03",60.98,44.06,0.00,0.00,0.00
"USC00503304","1966-07-04",60.08,30.92,0.00,0.00,0.00
"USC00503304","1966-07-05",66.02,42.98,0.00,0.00,0.00
"USC00503304","1966-07-06",69.98,37.94,0.00,0.00,0.00
"USC00503304","1966-07-07",71.06,46.94,0.00,0.00,0.00
"USC00503304","1966-07-08",62.96,28.94,20.00,0.00,0.00
"USC00503304","1966-07-09",66.02,42.08,33.00,0.00,0.00
"USC00503304","1966-07-10",69.98,30.92,0.00,0.00,0.00
"USC00503304","1966-07-11",66.02,42.98,0.00,0.00,0.00
"USC00503304","1966-07-12",64.94,51.98,0.00,0.00,0.00
"USC00503304","1966-07-13",68.00,33.98,3.00,0.00,0.00
"USC00503304","1966-07-14",71.96,33.98,0.00,0.00,0.00
"USC00503304","1966-07-15",77.00,46.94,0.00,0.00,0.00
"USC00503304","1966-07-16",75.02,48.92,0.00,0.00,0.00
"USC00503304","1966-07-17",78.08,39.92,0.00,0.00,0.00
"USC00503304","1966-07-18",82.04,42.98,0.00,0.00,0.00
"USC00503304","1966-07-19",78.08,42.08,13.00,0.00,0.00
"USC00503304","1966-07-20",71.06,33.08,0.00,0.00,0.00
"USC00503304","1966-07-21",78.08,46.94,0.00,0.00,0.00
"USC00503304","1966-07-22",80.06,39.02,0.00,0.00,0.00
"USC00503304","1966-07-23",80.96,37.04,0.00,0.00,0.00
"USC00503304","1966-07-24",82.94,44.06,0.00,0.00,0.00
"USC00503304","1966-07-25",80.96,37.04,0.00,0.00,0.00
"USC00503304","1966-07-26",82.04,55.94,0.00,0.00,0.00
"USC00503304","1966-07-27",60.98,50.00,76.00,0.00,0.00
"USC00503304","1966-07-28",55.94,50.00,170.00,0.00,0.00
"USC00503304","1966-07-29",57.02,48.02,76.00,0.00,0.00
"USC00503304","1966-07-30",60.08,48.92,0.00,0.00,0.00
"USC00503304","1966-07-31",66.92,41.00,0.00,0.00,0.00
"USC00503304","1966-08-01",64.04,50.00,0.00,0.00,0.00
"USC00503304","1966-08-02",62.96,48.92,3.00,0.00,0.00
"USC00503304","1966-08-03",66.02,46.04,30.00,0.00,0.00
"USC00503304","1966-08-04",62.06,44.06,0.00,0.00,0.00
"USC00503304","1966-08-05",64.04,46.04,0.00,0.00,0.00
"USC00503304","1966-08-06",73.04,44.96,0.00,0.00,0.00
"USC00503304","1966-08-07",73.94,35.96,0.00,0.00,0.00
"USC00503304","1966-08-08",75.02,50.00,5.00,0.00,0.00
"USC00503304","1966-08-09",55.04,39.02,66.00,0.00,0.00
"USC00503304","1966-08-10",57.92,35.06,5.00,0.00,0.00
"USC00503304","1966-08-11",62.96,39.02,15.00,0.00,0.00
"USC00503304","1966-08-12",62.06,44.06,0.00,0.00,0.00
"USC00503304","1966-08-13",66.92,26.06,0.00,0.00,0.00
"USC00503304","1966-08-14",69.08,30.02,0.00,0.00,0.00
"USC00503304","1966-08-15",69.08,33.08,0.00,0.00,0.00
"USC00503304","1966-08-16",66.02,39.92,0.00,0.00,0.00
"USC00503304","1966-08-17",62.96,44.96,0.00,0.00,0.00
"USC00503304","1966-08-18",62.06,46.04,0.00,0.00,0.00
"USC00503304","1966-08-19",55.04,46.04,8.00,0.00,0.00
"USC00503304","1966-08-20",60.08,42.08,0.00,0.00,0.00
"USC00503304","1966-08-21",57.92,42.08,0.00,0.00,0.00
"USC00503304","1966-08-22",60.08,42.98,0.00,0.00,0.00
"USC00503304","1966-08-23",62.06,44.06,0.00,0.00,0.00
"USC00503304","1966-08-24",62.96,46.04,0.00,0.00,0.00
"USC00503304","1966-08-25",62.06,26.96,0.00,0.00,0.00
"USC00503304","1966-08-26",62.96,26.96,0.00,0.00,0.00
"USC00503304","1966-08-27",68.00,23.00,0.00,0.00,0.00
"USC00503304","1966-08-28",71.06,26.96,0.00,0.00,0.00
"USC00503304","1966-08-29",62.06,42.08,8.00,0.00,0.00
"USC00503304","1966-08-30",60.08,44.06,0.00,0.00,0.00
"USC00503304","1966-08-31",57.92,39.92,0.00,0.00,0.00
"USC00503304","1966-09-01",62.06,33.98,0.00,0.00,0.00
"USC00503304","1966-09-02",60.98,35.06,0.00,0.00,0.00
"USC00503304","1966-09-03",53.06,37.94,3.00,0.00,0.00
"USC00503304","1966-09-04",57.92,33.98,0.00,0.00,0.00
"USC00503304","1966-09-05",55.04,26.96,0.00,0.00,0.00
"USC00503304","1966-09-06",57.92,28.04,0.00,0.00,0.00
"USC00503304","1966-09-07",57.02,30.02,3.00,0.00,0.00
"USC00503304","1966-09-08",55.94,26.06,30.00,0.00,0.00
"USC00503304","1966-09-09",57.02,21.02,0.00,0.00,0.00
"USC00503304","1966-09-10",57.92,21.92,0.00,0.00,0.00
"USC00503304","1966-09-11",60.98,26.06,23.00,0.00,0.00
"USC00503304","1966-09-12",48.02,39.02,71.00,0.00,0.00
"USC00503304","1966-09-13",53.96,30.92,61.00,0.00,0.00
"USC00503304","1966-09-14",59.00,24.98,0.00,0.00,0.00
"USC00503304","1966-09-15",46.04,33.08,41.00,0.00,0.00
"USC00503304","1966-09-16",64.94,35.06,0.00,0.00,0.00
"USC00503304","1966-09-17",59.00,19.04,0.00,0.00,0.00
"USC00503304","1966-09-18",57.02,19.04,0.00,0.00,0.00
"USC00503304","1966-09-19",55.04,32.00,0.00,0.00,0.00
"USC00503304","1966-09-20",53.96,39.02,0.00,0.00,0.00
"USC00503304","1966-09-21",51.98,17.06,0.00,0.00,0.00
"USC00503304","1966-09-22",53.06,10.94,0.00,0.00,0.00
"USC00503304","1966-09-23",53.06,12.92,0.00,0.00,0.00
"USC00503304","1966-09-24",53.96,15.08,0.00,0.00,0.00
"USC00503304","1966-09-25",42.98,24.08,53.00,0.00,0.00
"USC00503304","1966-09-26",46.94,21.92,0.00,0.00,0.00
"USC00503304","1966-09-27",51.08,23.00,0.00,0.00,0.00
"USC00503304","1966-09-28",55.94,39.92,25.00,0.00,0.00
"USC00503304","1966-09-29",55.04,41.00,0.00,0.00,0.00
"USC00503304","1966-09-30",53.06,19.94,0.00,0.00,0.00
"USC00503304","1966-10-01",53.06,19.94,0.00,0.00,0.00
"USC00503304","1966-10-02",55.04,37.04,0.00,0.00,0.00
"USC00503304","1966-10-03",53.06,39.92,0.00,0.00,0.00
"USC00503304","1966-10-04",53.06,19.04,0.00,0.00,0.00
"USC00503304","1966-10-05",48.02,19.04,0.00,0.00,0.00
"USC00503304","1966-10-06",46.04,33.98,0.00,0.00,0.00
"USC00503304","1966-10-07",44.96,28.94,0.00,0.00,0.00
"USC00503304","1966-10-08",39.02,30.02,5.00,0.00,0.00
"USC00503304","1966-10-09",44.96,30.92,0.00,0.00,0.00
"USC00503304","1966-10-10",44.06,28.04,0.00,0.00,0.00
"USC00503304","1966-10-11",42.98,12.02,0.00,0.00,0.00
"USC00503304","1966-10-12",39.02,12.02,0.00,0.00,0.00
"USC00503304","1966-10-13",37.94,32.00,0.00,0.00,0.00
"USC00503304","1966-10-14",41.00,28.94,0.00,0.00,0.00
"USC00503304","1966-10-15",44.96,30.02,0.00,0.00,0.00
"USC00503304","1966-10-16",42.08,28.04,25.00,25.00,25.00
"USC00503304","1966-10-17",35.06,17.06,0.00,15.00,51.00
"USC00503304","1966-10-18",30.02,17.06,10.00,25.00,76.00
"USC00503304","1966-10-19",28.94,15.98,5.00,13.00,76.00
"USC00503304","1966-10-20",28.04,-0.04,0.00,0.00,76.00
"USC00503304","1966-10-21",19.94,-18.04,0.00,0.00,76.00
"USC00503304","1966-10-22",14.00,-18.04,0.00,0.00,76.00
"USC00503304","1966-10-23",19.04,-14.98,0.00,0.00,76.00
"USC00503304","1966-10-24",12.02,-13.00,0.00,0.00,76.00
"USC00503304","1966-10-25",12.92,-9.04,0.00,0.00,76.00
"USC00503304","1966-10-26",17.96,-5.08,0.00,0.00,76.00
"USC00503304","1966-10-27",15.98,-7.96,8.00,15.00,76.00
"USC00503304","1966-10-28",12.92,-7.96,0.00,0.00,76.00
"USC00503304","1966-10-29",14.00,-9.04,3.00,13.00,102.00
"USC00503304","1966-10-30",15.98,-7.96,3.00,15.00,102.00
"USC00503304","1966-10-31",24.08,-7.06,0.00,0.00,102.00
"USC00503304","1966-11-01",28.94,8.06,30.00,38.00,152.00
"USC00503304","1966-11-02",37.94,19.04,0.00,0.00,127.00
"USC00503304","1966-11-03",39.02,28.04,0.00,0.00,102.00
"USC00503304","1966-11-04",30.92,21.92,33.00,51.00,152.00
"USC00503304","1966-11-05",24.98,-11.92,0.00,0.00,152.00
"USC00503304","1966-11-06",15.08,-4.00,20.00,51.00,203.00
"USC00503304","1966-11-07",19.94,1.94,0.00,0.00,203.00
"USC00503304","1966-11-08",17.06,10.94,41.00,53.00,254.00
"USC00503304","1966-11-09",24.98,-9.04,13.00,33.00,305.00
"USC00503304","1966-11-10",12.02,-25.96,0.00,0.00,254.00
"USC00503304","1966-11-11",-0.94,-25.06,0.00,0.00,254.00
"USC00503304","1966-11-12",8.06,-18.04,0.00,0.00,229.00
"USC00503304","1966-11-13",1.94,-31.00,0.00,0.00,229.00
"USC00503304","1966-11-14",-0.04,-29.92,0.00,0.00,229.00
"USC00503304","1966-11-15",6.98,-31.00,0.00,0.00,229.00
"USC00503304","1966-11-16",-9.04,-32.08,0.00,0.00,203.00
"USC00503304","1966-11-17",8.06,-29.02,13.00,33.00,254.00
"USC00503304","1966-11-18",-0.94,-29.92,0.00,0.00,254.00
"USC00503304","1966-11-19",6.98,-27.94,0.00,0.00,254.00
"USC00503304","1966-11-20",-2.92,-25.06,0.00,0.00,254.00
"USC00503304","1966-11-21",-4.00,-23.98,3.00,13.00,254.00
"USC00503304","1966-11-22",6.08,-7.06,33.00,51.00,305.00
"USC00503304","1966-11-23",17.96,3.92,38.00,51.00,356.00
"USC00503304","1966-11-24",32.00,15.08,3.00,13.00,356.00
"USC00503304","1966-11-25",33.08,1.94,3.00,8.00,330.00
"USC00503304","1966-11-26",21.92,3.02,0.00,0.00,330.00
"USC00503304","1966-11-27",15.08,-23.98,0.00,0.00,330.00
"USC00503304","1966-11-28",-0.04,-34.06,0.00,0.00,330.00
"USC00503304","1966-11-29",-11.02,-32.98,0.00,0.00,330.00
"USC00503304","1966-11-30",-7.06,-25.06,0.00,0.00,330.00
"USC00503304","1966-12-01",6.98,-25.06,0.00,0.00,330.00
"USC00503304","1966-12-02",10.04,-7.96,0.00,0.00,229.00
"USC00503304","1966-12-03",5.00,-2.02,0.00,0.00,229.00
"USC00503304","1966-12-04",5.00,-27.04,0.00,0.00,203.00
"USC00503304","1966-12-05",8.96,-25.06,0.00,0.00,203.00
"USC00503304","1966-12-06",10.04,-5.98,0.00,0.00,203.00
"USC00503304","1966-12-07",-4.00,-32.98,0.00,0.00,203.00
"USC00503304","1966-12-08",-2.02,-43.96,0.00,0.00,203.00
"USC00503304","1966-12-09",-29.02,-52.06,0.00,0.00,203.00
"USC00503304","1966-12-10",-34.96,-52.96,0.00,0.00,203.00
"USC00503304","1966-12-11",-43.06,-54.04,0.00,0.00,203.00
"USC00503304","1966-12-12",-36.94,-54.94,0.00,0.00,203.00
"USC00503304","1966-12-13",-23.08,-49.00,0.00,0.00,203.00
"USC00503304","1966-12-14",-14.08,-32.08,0.00,0.00,203.00
"USC00503304","1966-12-15",-2.92,-16.06,0.00,0.00,203.00
"USC00503304","1966-12-16",1.94,-25.96,0.00,0.00,203.00
"USC00503304","1966-12-17",17.96,-2.02,0.00,0.00,203.00
"USC00503304","1966-12-18",15.08,-5.08,0.00,0.00,203.00
"USC00503304","1966-12-19",19.94,-0.94,5.00,13.00,229.00
"USC00503304","1966-12-20",17.96,-14.98,0.00,0.00,229.00
"USC00503304","1966-12-21",17.06,-23.98,0.00,0.00,229.00
"USC00503304","1966-12-22",-0.04,-25.06,3.00,10.00,229.00
"USC00503304","1966-12-23",-0.04,-23.08,0.00,0.00,229.00
"USC00503304","1966-12-24",3.02,-11.02,5.00,18.00,229.00
"USC00503304","1966-12-25",3.02,-16.06,0.00,0.00,229.00
"USC00503304","1966-12-26",3.92,-29.02,56.00,51.00,279.00
"USC00503304","1966-12-27",8.06,-5.08,13.00,25.00,305.00
"USC00503304","1966-12-28",10.94,-11.92,0.00,0.00,305.00
"USC00503304","1966-12-29",3.92,-23.08,0.00,0.00,279.00
"USC00503304","1966-12-30",12.92,-2.02,10.00,25.00,305.00
"USC00503304","1966-12-31",12.02,1.94,0.00,0.00,305.00
"USC00503304","1967-01-01",12.92,-11.02,0.00,0.00,305.00
"USC00503304","1967-01-02",6.08,-2.92,0.00,0.00,305.00
"USC00503304","1967-01-03",15.08,1.94,0.00,0.00,305.00
"USC00503304","1967-01-04",5.00,-29.92,0.00,0.00,305.00
"USC00503304","1967-01-05",3.02,-32.08,20.00,33.00,330.00
"USC00503304","1967-01-06",8.96,-0.94,64.00,109.00,406.00
"USC00503304","1967-01-07",12.02,-5.08,0.00,0.00,406.00
"USC00503304","1967-01-08",8.96,-9.94,3.00,8.00,406.00
"USC00503304","1967-01-09",6.98,-20.02,0.00,0.00,406.00
"USC00503304","1967-01-10",3.02,-22.00,15.00,20.00,406.00
"USC00503304","1967-01-11",8.06,-9.04,3.00,10.00,406.00
"USC00503304","1967-01-12",12.02,-13.00,0.00,0.00,406.00
"USC00503304","1967-01-13",-2.92,-23.98,0.00,0.00,406.00
"USC00503304","1967-01-14",-0.94,-13.00,0.00,0.00,406.00
"USC00503304","1967-01-15",-0.94,-14.98,0.00,10.00,406.00
"USC00503304","1967-01-16",-13.00,-36.94,0.00,0.00,406.00
"USC00503304","1967-01-17",-5.98,-25.96,0.00,0.00,406.00
"USC00503304","1967-01-18",-7.96,-23.98,0.00,0.00,406.00
"USC00503304","1967-01-19",-9.94,-29.92,0.00,0.00,406.00
"USC00503304","1967-01-20",-11.92,-36.94,0.00,0.00,406.00
"USC00503304","1967-01-21",15.08,-34.96,0.00,0.00,406.00
"USC00503304","1967-01-22",3.92,-18.94,0.00,0.00,406.00
"USC00503304","1967-01-23",-2.02,-29.92,0.00,0.00,406.00
"USC00503304","1967-01-24",-5.08,-34.06,0.00,0.00,381.00
"USC00503304","1967-01-25",-9.04,-34.96,0.00,0.00,381.00
"USC00503304","1967-01-26",-13.00,-36.94,0.00,0.00,356.00
"USC00503304","1967-01-27",-9.94,-40.00,0.00,0.00,356.00
"USC00503304","1967-01-28",5.00,-41.98,0.00,0.00,356.00
"USC00503304","1967-01-29",-0.94,-36.94,0.00,0.00,330.00
"USC00503304","1967-01-30",-9.94,-38.02,0.00,0.00,330.00
"USC00503304","1967-01-31",-7.06,-45.04,0.00,0.00,330.00
"USC00503304","1967-02-01",-11.02,-36.04,0.00,0.00,330.00
"USC00503304","1967-02-02",-5.98,-34.06,8.00,10.00,330.00
"USC00503304","1967-02-03",-9.94,-25.96,0.00,0.00,330.00
"USC00503304","1967-02-04",3.02,-22.00,0.00,0.00,330.00
"USC00503304","1967-02-05",5.00,-23.08,0.00,0.00,330.00
"USC00503304","1967-02-06",10.04,-14.08,0.00,0.00,330.00
"USC00503304","1967-02-07",37.94,-0.04,0.00,0.00,330.00
"USC00503304","1967-02-08",33.98,21.92,112.00,107.00,432.00
"USC00503304","1967-02-09",28.94,8.06,15.00,64.00,483.00
"USC00503304","1967-02-10",24.08,8.06,0.00,0.00,483.00
"USC00503304","1967-02-11",12.92,-13.00,0.00,0.00,483.00
"USC00503304","1967-02-12",3.02,-9.94,0.00,0.00,483.00
"USC00503304","1967-02-13",-0.94,-13.00,0.00,0.00,457.00
"USC00503304","1967-02-14",1.94,-32.08,0.00,0.00,457.00
"USC00503304","1967-02-15",-5.08,-41.98,0.00,0.00,457.00
"USC00503304","1967-02-16",-5.98,-41.98,0.00,0.00,457.00
"USC00503304","1967-02-17",-2.02,-20.92,58.00,64.00,508.00
"USC00503304","1967-02-18",8.06,-11.92,0.00,10.00,508.00
"USC00503304","1967-02-19",12.02,-9.94,0.00,0.00,508.00
"USC00503304","1967-02-20",14.00,-20.02,0.00,0.00,508.00